Home   Weather   Doha   Past weeks
Flag for Qatar

Past Weather in Doha, Qatar — Yesterday and Last 2 Weeks

Now
84 °F

Clear.


Feels Like: 92 °F
Forecast: 100 / 81 °F
Wind: 7 mph from Northeast

Location: Doha International Airport

Current Time: May 26, 2019 at 12:13:33 am

Latest Report: May 25, 2019 at 11:00 pm


Visibility: 10 mi

Pressure: 29.74 "Hg

Humidity: 74%

Dew Point: 75 °F

Location of DohaLocation

Past Weather in Doha — Graph

°F

Doha Temperature Yesterday

Maximum temperature yesterday: 99 °F (at 12:00 pm)
Minimum temperature yesterday: 82 °F (at 2:00 am)
Average temperature yesterday: 90 °F

High & Low Weather Summary for the Past Weeks

 TemperatureHumidityPressure
High108 °F (May 14, 3:00 pm)79% (May 19, 12:00 am)29.86 "Hg (May 19, 12:00 am)
Low79 °F (May 16, 5:00 am)10% (May 14, 2:00 pm)29.62 "Hg (May 15, 2:00 pm)
Average90 °F43%29.74 "Hg
* Reported May 10 10:00 pm — May 25 10:00 pm, Doha. Weather by CustomWeather, © 2019

Note: Actual official high and low records may vary slightly from our data, if they occured in-between our weather recording intervals... More about our weather records

Advertising

Doha Weather History for the Previous 24 Hours

Scroll right to see more
 ConditionsComfort  
Time TempWeatherWind HumidityBarometerVisibility
10:00 pm
Sat, May 25
86 °FClear.6 mph66%29.74 "Hg10 mi
9:00 pm86 °FClear.8 mph66%29.74 "Hg10 mi
8:00 pm86 °FClear.9 mph66%29.74 "Hg10 mi
7:00 pm88 °FClear.12 mph62%29.71 "Hg10 mi
6:00 pm88 °FSunny.9 mph62%29.71 "Hg10 mi
5:00 pm91 °FSunny.9 mph52%29.71 "Hg10 mi
4:00 pm93 °FSunny.10 mph47%29.71 "Hg10 mi
3:00 pm97 °FSunny.9 mph34%29.74 "Hg10 mi
2:00 pm99 °FPassing clouds.9 mph31%29.74 "HgN/A
1:00 pm99 °FPassing clouds.8 mph31%29.77 "HgN/A
12:00 pm99 °FPassing clouds.6 mph33%29.77 "HgN/A
11:00 am97 °FPassing clouds.6 mph32%29.80 "HgN/A
10:00 am95 °FSunny.9 mph41%29.80 "Hg10 mi
9:00 am95 °FPassing clouds.6 mph41%29.83 "HgN/A
8:00 am93 °FSunny.2 mph34%29.80 "Hg10 mi
7:00 am88 °FSunny.3 mph49%29.80 "Hg10 mi
6:00 am86 °FSunny.No wind46%29.77 "Hg10 mi
5:00 am82 °FSunny.No wind51%29.77 "Hg10 mi
4:00 am82 °FClear.1 mph48%29.74 "Hg10 mi
3:00 am82 °FClear.2 mph55%29.74 "Hg10 mi
2:00 am82 °FClear.No wind55%29.74 "Hg10 mi
1:00 am84 °FClear.1 mph51%29.74 "Hg10 mi
12:00 am84 °FClear.No wind58%29.77 "Hg10 mi
Weather by CustomWeather, © 2019

See weather overview